Regional Weather Roundup
Issued by NWS Goodland, KS

Home | Current Version | Previous Version | Text Only | Print | Product List | Glossary On
Versions: 1 2 3 4 5 6 7 8 9 10 11 12 13 14 15 16 17 18 19 20 21 22 23 24 25 26 27 28 29 30 31 32 33 34 35 36 37 38 39 40 41 42 43 44 45 46 47 48 49 50
000
ASUS43 KGLD 210408
RWRGLD

GOODLAND FORECAST AREA HOURLY WEATHER ROUNDUP
NATIONAL WEATHER SERVICE GOODLAND KS
1000 PM MDT WED AUG 20 2014

...OFFICIAL OBSERVATIONS...

CITY           SKY/WX    TMP DP  RH WIND       PRES   REMARKS
GOODLAND KS    PTCLDY    72  62  71 CALM      29.86R
HILL CITY KS   MOCLDY    87  62  43 S15G21    29.76R
IMPERIAL NEB   MOCLDY    69  65  86 CALM      29.82F
MCCOOK NEB     MOCLDY    81  59  47 N15       29.79R
AKRON CO       PTCLDY    70  57  63 N15       29.96R
BURLINGTON CO  CLEAR     71  57  61 NE8       29.88R
LIMON CO       MOCLDY    68  53  58 NW7       29.98R
$$

...UNOFFICIAL OBSERVATIONS...

CITY           SKY/WX    TMP DP  RH WIND       PRES   REMARKS
COLBY KS       MOCLDY    75  66  73 SW7       29.84R
LENORA KS        N/A     85  32  15 CALM        N/A
NORTON KS      CLEAR     75  63  64 CALM      29.78R
SHARON SPRINGS   N/A     79  59  49 S10         N/A
WAKEENEY KS      N/A     87  54  32 MISG        N/A
KIT CARSON CO    N/A     73  55  53 MISG        N/A
YUMA CO          N/A     67  61  80 CALM        N/A
$$


USA.gov is the U.S. government's official web portal to all federal, state and local government web resources and services.